星链-3767 (STARLINK-3767 )

导读

STARLINK-3767是美国SpaceX公司星链(Starlink)星座中的一颗通信卫星,于2022年4月29日发射入轨。作为星链大规模组网阶段的量产卫星,它依托星链V1.5平台设计,配备相控阵天线与霍尔推进系统,运行于近地轨道。该卫星是SpaceX构建全球低轨宽带互联网网络的组成部分,为全球偏远区域提供高速低延迟互联网接入,助力星链全球覆盖网络的搭建,也推动了低轨卫星通信技术的商业化应用。

基本信息
目录编号:
52376
目录名称:
STARLINK-3767
国际标识:
2022-045AX
轨道中心:
EARTH
卫星名称:
星链-3767
卫星全名:
星链-3767 (STARLINK-3767 )
卫星状态:
已陨落 最后检测时间 2026-03-17
发射日期:
2022-04-29 UTC
国别 :
美国 (US)
星等 :
--
轨道信息
数据来源 国际轨道数据
星历时间: 2026-03-17T13:59:07+0800
轨道信息已过期92天
半长轴: 6519.202km
偏心率: 0.0002261
轨道倾角: 53.200°
近地点辐角 237.913°
升交点赤经 131.716°
平近点角 122.170°
近地点: 139.591km
远地点: 142.539km
周期: 87.307分钟
每日圈数: 16.493435
详细信息
固有亮度:
5
最大亮度:
2.5
卫星平台:
Starlink v1.5
覆盖范围:
全球
运营商:
太空探索技术公司
运营商所在国:
美国
制造商(研发单位):
太空探索技术公司
制造商所在国:
美国
使用方式:
暂无
卫星简介
星链(Starlink)计划是由太空探索技术公司(SpaceX)提出的一个巨型低轨卫星互联网星座项目,计划在2019年至2024年间在太空搭建由约1.2万颗卫星组成的“星链”网络,其中1584颗将部署在地球上空550千米处的近地轨道,并从2020年开始工作。该卫星仍在工作。